SCP
0 0 0 0 0 0 0 0 0 0 0 0 0 0 0 0 0 0 0 0 0 0 0 0 0 0 0 0 0 0 0 0 0 0 0 0 0 0 0 0 0 0 0 0
0 0 0 0 0 0 0 0 0 0 0 0 0 0 0 0 0 0 0 0 0 0 0 0 0 0 0 0 0 0 0 0 0 0 0 0 0 0 0 0 0 0 0 0
0 0 0 0 0 0 0 0 0 0 0 0 0 0 0 0 0 0 0 0 0 0 0 0 0 0 0 0 0 0 0 0 0 0 0 0 0 0 0 0 0 0 0 0
0 0 0 0 0 0 0 0 0 0 0 0 0 0 0 0 0 0 0 0 0 0 0 0 0 0 0 0 0 0 0 0 0 0 0 0 0 0 0 0 0 0 0 0
0 0 0 0 0 0 0 0 0 0 0 0 0 0 0 0 0 0 0 0 0 0 0 0 0 0 0 0 0 0 0 0 0 0 0 0 0 0 0 0 0 0 0 0
0 0 0 0 0 0 0 0 0 0 0 0 0 0 0 0 0 0 0 0 0 0 0 0 0 0 0 0 0 0 0 0 0 0 0 0 0 0 0 0 0 0 0 0
0 0 0 0 0 0 0 0 0 0 0 0 0 0 0 0 0 0 0 0 0 0 0 0 0 0 0 0 0 0 0 0 0 0 0 0 0 0 0 0 0 0 0 0
0 0 0 0 0 0 0 0 0 0 0 0 0 0 0 0 0 0 0 0 0 0 0 0 0 0 0 0 0 0 0 0 0 0 0 0 0 0 0 0 0 0 0 0
0 0 0 0 0 0 0 0 0 0 0 0 0 0 0 0 0 0 0 0 0 0 0 0 0 0 0 0 0 0 0 0 0 0 0 0 0 0 0 0 0 0 0 0
0 0 0 0 0 0 0 0 0 0 0 0 0 0 0 0 0 0 0 0 0 0 0 0 0 0 0 0 0 0 0 0 0 0 0 0 0 0 0 0 0 0 0 0
0 0 0 0 0 0 0 0 0 0 0 0 0 0 0 0 0 0 0 0 0 0 0 0 0 0 0 0 0 0 0 0 0 0 0 0 0 0 0 0 0 0 0 0
0 0 0 0 0 0 0 0 0 0 0 0 0 0 0 0 0 0 0 0 0 1 0 0 0 0 0 0 0 0 0 0 0 0 0 0 0 0 0 0 0 0 0 0
0 0 0 0 0 0 0 0 0 0 0 0 0 0 0 0 0 0 0 0 0 0 0 0 0 0 0 0 0 0 0 0 0 0 0 0 0 0 0 0 0 0 0 0
0 0 0 0 0 0 0 0 0 0 0 0 0 0 0 0 0 0 0 0 0 0 0 0 0 0 0 0 0 0 0 0 0 0 0 0 0 0 0 0 0 0 0 0
0 0 -0 -0 -0 -0 0 0 0 0 0 0 0 0 0 0 0 0 0 0 0 0 0 0 0 0 0 0 0 0 0 0 0 0 0 0 0 0 0 0 0 0 0 0
-0 -0 -0 -0 -0 -0 -0 -0 -0 0 0 0 0 0 0 0 0 0 0 0 0 0 0 0 0 0 0 0 0 0 0 0 0 0 0 0 0 0 0 0 0 0 0 0
-0 -0 -0 0 0 0 -0 -0 -0 -0 0 0 0 0 0 0 0 0 0 0 0 0 0 0 0 0 0 0 0 0 0 0 0 0 0 0 0 0 0 0 0 0 0 0
0 0 0 0 0 0 0 0 0 0 0 0 0 -0 -0 0 0 0 0 0 0 0 0 0 0 0 0 0 0 0 0 0 0 0 0 0 0 0 0 0 0 0 0 0
0 0 0 0 0 0 0 0 0 0 0 0 0 0 -0 0 0 0 0 0 0 0 0 0 0 0 0 0 0 0 0 0 0 0 0 0 0 0 0 0 0 0 0 0
0 0 0 0 0 0 0 0 0 0 0 0 0 0 0 0 0 0 0 0 0 0 0 0 0 0 0 0 0 0 0 0 0 0 0 0 0 0 0 0 0 0 0 0
0 0 0 0 0 0 0 0 0 0 0 0 0 0 0 0 0 0 0 0 0 0 0 0 0 0 0 0 0 0 0 0 0 0 0 0 0 0 0 0 0 0 0 0
0 0 0 0 0 0 0 0 0 0 0 0 0 0 0 0 0 0 0 0 -0 0 0 0 0 0 0 0 0 0 0 0 0 0 0 0 0 0 0 0 0 0 0 0
0 0 0 0 0 0 0 0 0 0 0 0 0 0 0 0 0 0 0 -0 -0 0 0 0 0 0 0 0 0 0 0 0 0 0 0 0 0 0 0 0 0 0 0 0
0 0 0 0 0 0 0 0 0 0 0 0 0 0 -0 0 0 0 0 -0 -0 0 0 0 0 0 0 0 0 0 0 0 0 0 0 0 0 0 0 0 0 0 0 0
0 0 0 0 0 0 0 0 0 0 0 0 0 0 0 0 0 0 0 -0 -0 0 0 0 0 0 0 0 0 0 0 0 0 0 0 0 0 0 0 0 0 0 0 0
0 0 0 0 0 0 0 0 0 0 0 0 0 0 0 0 0 0 0 0 0 0 0 0 0 0 0 0 0 0 0 0 0 0 0 0 0 0 0 0 0 0 0 0
0 0 0 0 0 0 0 0 0 0 0 0 0 0 0 0 0 0 0 0 0 0 0 0 0 0 0 0 0 0 0 0 0 0 0 0 0 0 0 0 0 0 0 0
Wind_Speed
16 16 15 18 18 17 17 19 22 22 21 18 16 15 14 11 9 8 9 9 7 7 6 6 6 5 4 2 2 3 7 11 10 8 6 4 4 4 5 6 7 7 8 8
15 16 17 20 20 20 19 19 21 22 21 17 14 13 13 12 9 9 10 9 8 7 7 7 7 6 4 2 2 2 6 11 11 10 8 7 5 6 7 7 7 7 9 9
11 8 12 13 10 10 11 14 17 18 17 15 17 17 16 13 10 10 10 9 8 8 8 8 7 6 5 3 2 2 5 9 11 11 9 7 6 7 7 7 7 8 9 10
9 9 9 5 3 9 14 15 16 16 15 15 15 14 14 12 11 10 9 8 9 8 9 9 8 7 6 5 3 2 4 7 10 12 11 7 5 6 6 6 6 6 8 10
8 11 12 10 7 9 12 16 15 12 11 13 13 14 14 8 9 10 9 8 8 9 10 9 9 8 7 7 5 4 4 5 9 12 14 12 9 8 6 5 5 5 7 9
10 13 9 8 9 10 13 14 5 12 18 21 22 18 14 12 8 9 9 8 8 9 10 10 10 9 9 9 8 7 6 6 7 9 12 13 12 11 9 7 6 5 6 7
12 13 9 7 9 15 13 12 22 25 25 24 23 20 20 20 15 11 10 10 10 10 11 11 10 9 9 9 9 8 8 8 7 8 9 11 12 11 11 9 7 6 6 6
6 8 6 12 17 13 15 19 22 23 22 22 21 21 21 19 15 11 12 11 12 11 11 11 11 10 10 10 9 8 9 9 8 8 8 10 10 10 10 10 9 8 7 7
7 9 12 14 16 16 18 19 21 22 23 22 21 20 20 19 16 12 14 13 13 13 13 12 12 11 11 10 9 10 10 9 9 9 7 8 9 10 10 10 10 10 8 6
12 10 12 14 16 18 18 19 21 22 23 22 22 21 20 18 16 12 12 14 14 15 14 14 13 13 12 10 11 11 11 10 9 9 8 8 6 7 8 10 10 10 10 8
11 11 13 12 17 20 20 20 22 22 22 23 23 21 20 18 16 13 11 13 14 15 15 15 14 14 13 12 11 11 11 10 10 10 8 8 7 4 5 6 6 7 7 7
7 12 11 13 17 19 19 20 20 21 21 21 20 21 20 18 17 14 11 11 14 16 17 16 16 15 14 12 12 11 10 10 9 9 9 8 8 7 7 4 8 8 5 3
7 12 11 14 17 18 18 20 21 21 20 19 18 18 18 17 16 17 14 12 15 17 17 17 17 16 15 14 13 12 11 10 9 9 9 9 8 8 8 7 6 7 8 7
10 10 11 15 17 19 20 21 21 22 20 19 18 18 18 17 16 16 15 14 13 15 16 16 17 17 17 16 14 13 12 10 9 8 8 9 9 9 9 11 11 9 8 9
10 9 12 16 19 20 21 22 23 22 22 21 18 17 19 19 18 16 15 15 14 14 16 17 17 17 16 16 16 15 12 10 10 9 9 9 9 9 9 10 10 11 11 10
16 16 18 20 21 23 23 24 23 23 24 24 22 20 20 20 19 17 14 14 14 14 16 17 18 17 17 17 17 14 12 11 10 10 10 10 10 10 10 10 10 9 11 12
19 21 23 23 23 24 24 23 23 23 23 24 25 24 23 22 21 18 14 12 14 14 14 15 17 17 18 18 18 14 13 13 13 12 12 11 11 11 11 11 11 11 12 13
19 20 22 23 22 23 24 24 23 25 25 25 25 24 23 22 22 19 15 13 14 14 14 15 15 16 18 19 17 14 13 13 14 13 12 12 11 11 12 12 13 13 11 13
21 22 22 22 22 21 21 21 23 23 25 25 25 24 22 22 22 19 15 13 14 14 13 13 15 15 17 19 18 14 14 15 15 14 12 12 12 12 13 13 13 13 12 12
26 25 25 24 23 22 20 20 20 20 21 22 23 24 23 21 21 19 15 12 10 11 10 8 11 15 17 19 18 15 16 16 16 15 14 14 14 13 13 13 13 13 12 11
28 28 27 25 24 24 22 22 20 21 21 21 21 22 22 20 19 17 13 10 8 9 9 7 9 12 15 15 19 16 17 17 16 16 15 15 15 15 14 14 13 13 12 11
26 25 26 25 25 24 22 21 21 22 22 21 22 21 20 19 17 15 12 8 5 4 5 5 8 12 14 17 18 17 17 17 16 16 16 15 15 15 15 15 14 13 13 12
24 24 25 25 25 24 24 22 22 19 19 20 21 20 19 16 13 11 10 6 4 3 3 5 9 10 13 16 17 18 18 18 17 16 16 16 16 15 15 16 14 14 14 13
23 24 24 24 24 25 24 23 21 17 19 20 19 20 18 14 12 11 8 5 5 5 4 6 11 10 12 14 16 17 17 17 16 16 16 16 15 15 15 15 15 14 14 15
21 22 23 23 22 19 21 22 22 20 19 15 19 20 17 13 12 10 8 7 6 6 6 7 9 10 11 13 15 16 16 16 16 16 16 15 16 15 15 15 15 14 14 13
20 18 17 18 17 16 16 16 16 15 15 14 14 13 13 12 12 10 8 8 9 8 7 5 5 7 10 12 14 15 15 15 16 15 16 15 16 16 15 15 18 15 13 13
20 17 15 15 15 16 17 17 17 16 13 12 12 11 11 11 11 10 11 8 7 6 6 5 5 6 8 10 11 12 12 13 15 16 16 15 14 14 14 16 14 13 13 13
Wind_Direction
277 284 282 276 275 270 258 261 273 282 285 292 298 307 315 311 297 265 257 264 266 261 252 248 249 257 264 266 244 210 179 168 172 177 174 154 132 126 128 125 118 117 120 116
279 276 277 275 271 269 268 266 267 273 277 284 300 302 301 302 286 266 264 263 260 250 247 245 247 251 256 277 293 229 184 172 174 174 164 153 146 139 134 124 121 125 121 112
283 299 293 274 272 270 273 272 274 277 286 304 311 307 308 305 285 270 273 265 252 245 238 239 241 244 247 251 263 214 171 171 170 161 149 145 150 139 130 126 127 130 123 109
289 294 265 298 342 298 295 292 292 287 292 303 312 317 303 284 274 273 273 262 249 240 229 226 232 234 234 245 239 198 157 159 160 152 146 143 143 129 119 116 125 132 126 114
282 288 288 292 299 319 311 299 298 311 329 329 334 311 292 281 241 251 260 253 245 236 227 222 225 226 226 236 239 222 175 158 160 160 158 160 160 152 139 131 128 132 122 123
279 288 287 328 21 354 311 293 12 344 329 322 314 301 301 327 297 254 236 227 223 221 220 215 219 221 226 233 234 225 197 175 165 162 164 165 159 158 158 155 142 133 122 129
277 281 279 1 2 333 309 320 332 320 313 307 299 294 298 299 290 263 238 215 206 208 208 209 208 213 228 239 235 221 193 178 171 157 154 155 156 161 167 167 154 140 129 125
283 275 278 2 337 322 305 307 307 306 303 299 296 292 292 292 287 257 239 221 202 200 203 202 201 209 225 232 226 209 187 182 171 165 164 154 161 166 170 166 160 158 152 144
287 278 307 321 317 330 336 329 323 316 310 303 297 295 294 294 291 264 237 225 206 199 198 197 199 209 219 212 204 199 190 186 178 172 165 159 166 167 168 173 175 167 157 152
283 281 320 333 354 357 351 342 338 334 326 315 303 297 293 294 295 281 243 224 208 200 197 196 197 203 213 205 195 200 197 187 182 173 169 166 175 177 179 180 182 172 165 165
299 340 344 347 355 347 343 342 342 341 342 338 329 317 308 300 294 288 259 230 211 202 200 196 194 200 206 204 197 201 198 190 187 184 179 177 182 158 192 190 184 175 164 167
356 353 327 336 343 345 343 340 337 335 338 342 343 337 329 318 311 302 276 237 219 211 203 195 191 196 197 195 196 203 202 198 196 194 181 185 169 151 66 79 113 119 128 153
347 336 340 341 339 344 343 339 335 331 331 333 336 336 334 331 326 317 299 258 228 218 206 195 190 192 190 189 193 203 210 203 203 199 185 192 186 179 159 121 118 143 154 140
356 351 338 335 330 333 331 328 324 321 323 325 326 326 325 325 326 325 317 295 260 233 216 200 193 192 190 188 192 199 207 199 205 201 196 193 188 184 174 163 160 158 157 138
330 320 308 312 320 324 322 319 317 314 315 315 317 318 318 318 319 319 317 307 282 249 221 204 197 194 190 190 194 199 204 197 197 201 199 194 189 186 180 178 166 158 157 149
312 313 314 315 317 317 316 316 314 312 312 312 312 310 309 307 307 311 315 313 294 262 232 208 197 191 188 190 194 197 201 191 189 199 198 192 189 184 176 173 168 172 177 170
306 311 313 314 314 312 309 307 304 304 305 305 306 306 304 300 298 301 309 313 305 281 248 218 200 191 188 187 190 193 191 179 187 205 200 192 188 184 178 178 182 188 187 170
305 305 306 307 306 304 303 304 305 305 304 303 301 298 298 298 294 294 299 305 305 287 256 226 207 195 190 187 189 192 187 178 187 201 197 192 189 187 184 188 192 190 180 159
313 309 306 303 302 301 300 303 305 307 306 303 298 292 289 292 292 287 286 293 299 289 261 232 213 201 194 192 187 188 187 182 184 196 194 181 186 190 188 188 189 188 187 178
314 311 308 305 302 301 300 299 302 305 306 305 299 292 287 286 289 286 281 284 294 299 282 248 216 207 200 193 190 190 188 187 186 191 190 185 190 191 188 190 192 192 196 197
316 314 311 308 305 303 301 301 300 301 303 304 298 292 287 285 285 283 278 279 291 318 305 270 234 214 204 190 193 195 189 189 189 190 192 191 192 196 195 196 200 201 203 206
318 315 313 310 308 306 303 302 299 298 300 302 301 297 291 287 288 286 276 264 266 303 308 287 245 224 209 190 196 200 191 190 190 190 193 197 197 199 201 201 204 205 206 208
316 314 313 311 308 305 302 299 295 296 298 299 299 296 291 286 285 284 284 270 236 244 281 286 281 255 209 198 200 202 193 191 192 193 194 198 201 203 204 205 205 205 206 209
317 316 314 311 308 305 302 302 301 298 294 293 292 291 288 283 276 271 277 269 224 216 247 272 281 262 213 211 205 202 195 192 193 195 195 196 200 204 206 207 208 209 210 213
317 317 315 315 313 311 310 308 305 299 292 289 288 288 285 277 277 283 285 276 242 227 242 257 256 233 214 218 216 206 199 195 194 196 198 199 199 202 204 206 208 211 214 216
318 314 314 315 317 314 311 306 300 293 286 281 279 279 278 275 275 276 272 261 247 227 231 243 229 199 206 215 219 215 206 196 193 200 203 204 206 205 206 208 211 214 216 217
315 315 314 316 318 316 312 308 302 296 287 276 272 271 271 272 274 275 273 263 249 228 220 222 210 194 202 211 216 216 213 207 201 202 206 208 211 212 211 210 211 213 216 217